Location: Sungai Jaoh
(2.9167°N, 113.9167°E)
Time: 16:54:44
(UTC+00:00)

Envisat - Visible Passes

Search period start: 26 September 2021 00:00
Search period end: 06 October 2021 00:00
Orbit: 764 x 766 km, 98.2° (Epoch: 25 September)

Date Brightness Start Highest point End Pass type
(mag) Time Alt. Az. Time Alt. Az. Time Alt. Az.
26 Sep 5.7 20:17:43 10° ENE 20:21:03 18° ESE 20:24:23 10° SE visible
27 Sep 2.9 21:18:00 10° N 21:23:04 77° WNW 21:28:08 10° SSW visible
28 Sep 4.5 20:41:41 10° NE 20:46:19 36° ESE 20:50:57 10° SSE visible
29 Sep 6.1 20:07:24 10° ENE 20:09:34 13° ESE 20:11:44 10° SE visible
29 Sep 3.5 21:43:42 10° NNW 21:48:19 36° WNW 21:52:57 10° SW visible
30 Sep 3.1 21:06:31 10° NNE 21:11:34 78° E 21:16:39 10° S visible
01 Oct 5.1 20:30:37 10° NE 20:34:50 27° ESE 20:39:03 10° SSE visible
02 Oct 3.2 21:31:57 10° N 21:36:50 50° WNW 21:41:45 10° SSW visible
03 Oct 3.7 20:55:08 10° NNE 21:00:06 56° ESE 21:05:04 10° S visible
04 Oct 5.6 20:19:45 10° NE 20:23:21 20° ESE 20:26:57 10° SSE visible
05 Oct 2.9 21:20:19 10° N 21:25:21 70° WNW 21:30:25 10° SSW visible
